Date String (YYYY-MM-DD hh:mm:ss) UTC,Instrument flags,Ambient pressure (hPa),Sample flow (lpm),Bypass flow (lpm),Sample temperature (°C),Ambient temperature (°C),ASC tube jacket temperature (°C),LED temperature (°C),Box temperature (°C),Sample RH (%),Span deviation,Mass concentration (μg/m³),Mass concentration (μg/m³),Mass concentration (μg/m³)
DateTimeUTC,F1_M11,P_M11,Q1_M11,Q2_M11,T1_M11,T2_M11,T3_M11,T4_M11,T5_M11,U1_M11,ZSPAN_M11,X2_M11,X0_M11,X1_M11
2022-08-04 09:00:00,,0828.2,5.00,0.00,29.6,28.0,00.0,38.5,31.5,26.0,0001.5,0007.12,0010.60,0006.54
2022-08-04 09:01:00,,0828.2,5.00,0.00,29.6,28.1,00.0,38.5,31.5,26.1,0001.4,0007.12,0010.76,0006.54
2022-08-04 09:02:00,,0828.2,5.00,0.00,29.6,28.2,00.0,38.5,31.5,26.0,0001.8,0007.08,0010.92,0006.52
2022-08-04 09:03:00,,0828.2,5.00,0.00,29.6,28.3,00.0,38.5,31.5,25.9,0001.3,0007.04,0010.78,0006.51
2022-08-04 09:04:00,,0828.2,5.00,0.00,29.7,28.4,00.0,38.5,31.6,25.7,0001.3,0007.06,0010.87,0006.51
2022-08-04 09:05:00,,0828.2,5.00,0.00,29.7,28.4,00.0,38.5,31.6,25.6,0001.6,0007.05,0011.05,0006.52
2022-08-04 09:06:00,,0828.2,5.01,0.00,29.7,28.5,00.0,38.5,31.6,25.6,0001.0,0007.03,0010.96,0006.50
2022-08-04 09:07:00,,0828.2,5.00,0.00,29.7,28.6,00.0,38.5,31.6,25.6,0001.1,0007.01,0010.92,0006.49
2022-08-04 09:08:00,,0828.2,4.99,0.00,29.7,28.6,00.0,38.5,31.7,25.5,0001.7,0007.00,0010.84,0006.49
2022-08-04 09:09:00,,0828.3,5.01,0.00,29.7,28.7,00.0,38.5,31.7,25.5,0001.7,0007.03,0010.84,0006.50
2022-08-04 09:10:00,,0828.3,5.00,0.00,29.8,28.7,00.0,38.5,31.7,25.5,0001.6,0007.03,0010.62,0006.49
2022-08-04 09:11:00,,0828.3,5.00,0.00,29.8,28.8,00.0,38.5,31.8,25.9,0000.5,0007.03,0010.51,0006.49
2022-08-04 09:12:00,,0828.3,4.99,0.00,29.8,28.8,00.0,38.6,31.7,25.7,0000.0,0007.00,0010.37,0006.48
2022-08-04 09:13:00,,0828.4,5.00,0.00,29.8,28.9,00.0,38.6,31.8,25.7,0000.2,0006.98,0010.09,0006.48
2022-08-04 09:14:00,,0828.4,5.00,0.00,29.9,28.9,00.0,38.6,31.9,26.0,0000.0,0007.00,0010.10,0006.49
2022-08-04 09:15:00,,0828.4,5.00,0.00,29.9,28.9,00.0,38.6,31.9,26.5,0000.0,0006.99,0009.99,0006.50
2022-08-04 09:16:00,,0828.4,5.00,0.00,29.9,29.0,00.0,38.6,31.9,28.0,0000.0,0007.04,0009.86,0006.54
2022-08-04 09:17:00,,0828.4,5.00,0.00,30.0,29.0,00.0,38.7,31.9,28.9,0000.4,0007.12,0010.02,0006.61
2022-08-04 09:18:00,,0828.5,4.99,0.00,30.0,28.6,00.0,38.6,31.8,29.4,0001.8,0007.22,0010.30,0006.68
2022-08-04 09:19:00,,0828.4,5.00,0.00,29.9,27.9,00.0,38.6,31.7,28.9,0001.7,0007.28,0010.41,0006.73
2022-08-04 09:20:00,,0828.5,5.00,0.00,29.9,27.6,00.0,38.6,31.6,28.0,0001.8,0007.35,0010.49,0006.79
2022-08-04 09:21:00,,0828.4,5.00,0.00,29.8,27.6,00.0,38.6,31.5,28.1,0001.8,0007.45,0010.54,0006.85
2022-08-04 09:22:00,,0828.4,5.00,0.00,29.7,27.7,00.0,38.6,31.5,29.2,0001.5,0007.52,0010.66,0006.91
2022-08-04 09:23:00,,0828.4,5.00,0.00,29.7,27.8,00.0,38.5,31.5,29.1,0001.1,0007.60,0010.95,0006.97
2022-08-04 09:24:00,,0828.4,4.99,0.00,29.7,27.9,00.0,38.5,31.5,29.1,0000.8,0007.69,0011.86,0007.03
2022-08-04 09:25:00,,0828.4,4.99,0.00,29.7,28.1,00.0,38.5,31.5,29.3,0000.8,0007.78,0012.21,0007.10
2022-08-04 09:26:00,,0828.4,5.02,0.00,29.7,28.2,00.0,38.5,31.6,30.0,0000.7,0007.86,0012.33,0007.16
2022-08-04 09:27:00,,0828.4,4.99,0.00,29.7,28.3,00.0,38.5,31.6,29.7,0000.5,0007.88,0012.28,0007.20
2022-08-04 09:28:00,,0828.4,4.99,0.00,29.7,28.4,00.0,38.5,31.6,29.5,0000.6,0007.91,0012.24,0007.22
2022-08-04 09:29:00,,0828.3,5.00,0.00,29.7,28.5,00.0,38.5,31.6,29.2,0000.5,0007.90,0012.10,0007.23
2022-08-04 09:30:00,,0828.4,5.02,0.00,29.7,28.5,00.0,38.5,31.7,29.2,0000.7,0007.93,0012.68,0007.25
2022-08-04 09:31:00,,0828.4,5.01,0.00,29.8,28.6,00.0,38.5,31.7,29.3,0000.9,0007.94,0013.10,0007.28
2022-08-04 09:32:00,,0828.5,5.00,0.00,29.8,28.7,00.0,38.6,31.7,29.1,0000.9,0007.98,0013.71,0007.31
2022-08-04 09:33:00,,0828.5,5.00,0.00,29.8,28.7,00.0,38.6,31.7,28.8,0001.2,0008.01,0013.75,0007.33
2022-08-04 09:34:00,,0828.4,5.00,0.00,29.8,28.8,00.0,38.6,31.7,28.8,0001.8,0008.05,0013.59,0007.37
2022-08-04 09:35:00,,0828.4,5.00,0.00,29.8,28.8,00.0,38.6,31.8,28.4,0001.9,0008.08,0012.87,0007.39
2022-08-04 09:36:00,,0828.4,5.01,0.00,29.9,28.9,00.0,38.6,31.8,28.3,0001.6,0008.10,0012.74,0007.39
2022-08-04 09:37:00,,0828.4,4.99,0.00,29.9,28.9,00.0,38.6,31.8,28.1,0001.6,0008.07,0012.71,0007.37
2022-08-04 09:38:00,,0828.4,5.00,0.00,29.9,29.0,00.0,38.6,31.9,27.7,0002.1,0008.06,0012.70,0007.35
2022-08-04 09:39:00,,0828.4,5.01,0.00,29.9,29.0,00.0,38.7,31.9,27.4,0002.1,0008.03,0012.68,0007.32
2022-08-04 09:40:00,,0828.4,5.01,0.00,30.0,29.0,00.0,38.7,31.9,27.5,0001.8,0008.03,0012.73,0007.29
2022-08-04 09:41:00,,0828.4,4.99,0.00,30.0,28.5,00.0,38.7,31.8,27.5,0001.5,0007.99,0012.10,0007.27
2022-08-04 09:42:00,,0828.3,5.01,0.00,29.9,27.9,00.0,38.6,31.6,27.6,0001.5,0008.00,0011.67,0007.25
2022-08-04 09:43:00,,0828.3,5.00,0.00,29.9,27.6,00.0,38.6,31.6,27.3,0001.3,0007.94,0011.03,0007.23
2022-08-04 09:44:00,,0828.3,4.99,0.00,29.8,27.6,00.0,38.6,31.5,27.3,0000.8,0007.92,0011.02,0007.21
2022-08-04 09:45:00,,0828.3,5.01,0.00,29.7,27.7,00.0,38.6,31.5,27.3,0000.7,0007.87,0010.95,0007.16
2022-08-04 09:46:00,,0828.3,4.99,0.00,29.7,27.8,00.0,38.6,31.5,27.3,0000.8,0007.89,0011.08,0007.15
2022-08-04 09:47:00,,0828.3,5.00,0.00,29.7,27.9,00.0,38.6,31.5,27.4,0000.9,0007.84,0011.34,0007.13
2022-08-04 09:48:00,,0828.4,5.01,0.00,29.7,28.1,00.0,38.5,31.5,27.3,0001.1,0007.79,0011.23,0007.12
2022-08-04 09:49:00,,0828.5,5.00,0.00,29.7,28.2,00.0,38.5,31.6,27.4,0001.0,0007.81,0011.32,0007.11
2022-08-04 09:50:00,,0828.5,5.00,0.00,29.7,28.3,00.0,38.5,31.6,27.4,0000.7,0007.81,0011.43,0007.10
2022-08-04 09:51:00,,0828.5,5.00,0.00,29.7,28.4,00.0,38.5,31.6,27.6,0000.9,0007.78,0011.31,0007.11
2022-08-04 09:52:00,,0828.5,5.00,0.00,29.8,28.5,00.0,38.6,31.7,27.7,0001.2,0007.81,0011.37,0007.11
2022-08-04 09:53:00,,0828.5,4.99,0.00,29.8,28.6,00.0,38.6,31.7,27.9,0001.0,0007.81,0011.38,0007.12
2022-08-04 09:54:00,,0828.5,5.00,0.00,29.8,28.6,00.0,38.6,31.7,28.1,0000.9,0007.84,0011.41,0007.13
2022-08-04 09:55:00,,0828.5,5.00,0.00,29.8,28.7,00.0,38.6,31.8,28.3,0001.3,0007.89,0011.55,0007.15
2022-08-04 09:56:00,,0828.5,5.00,0.00,29.8,28.8,00.0,38.6,31.7,28.5,0001.4,0007.91,0011.79,0007.18
2022-08-04 09:57:00,,0828.5,5.00,0.00,29.8,28.8,00.0,38.6,31.8,28.8,0001.9,0007.90,0012.48,0007.20
2022-08-04 09:58:00,,0828.5,5.00,0.00,29.9,28.9,00.0,38.6,31.8,28.7,0002.3,0007.91,0012.46,0007.25
2022-08-04 09:59:00,,0828.5,5.00,0.00,29.9,28.9,00.0,38.6,31.9,28.2,0002.3,0007.98,0012.82,0007.30
